weather.gov     
National Weather Service

Regional Weather Roundup
NWS Homepage
This page is being discontinued on March 12, 2014.
The same data is available at this site. Please update your bookmarks.
Thank you, and we apologize for the inconvenience.
Please send an email to SR-SRH.Webmaster@noaa.gov with any concerns.


Current Version
Previous Version:    01  02  03  04  05  06  07  08  09  10  11  12  13  14  15  16  17  18  19  20  21  22  23  24  25  26  27  28  29  30  
   31  32  33  34  35  36  37  38  39  40  41  42  43  44  45  46  47  48  49  50  51  52  53  54  55  56  57  58  59  60  
[Printable]
864
ASUS43 KEAX 181811
RWREAX

WEATHER ROUNDUP FOR EASTERN KANSAS AND NORTHWEST MISSOURI
NATIONAL WEATHER SERVICE KANSAS CITY/PLEASANT HILL MO
1200 PM CST THU DEC 18 2014

KSZ040-057-103>105-MOZ028-029-037-043-181900-
...KANSAS CITY METROPOLITAN AREA...

CITY           SKY/WX    TMP DP  RH WIND       PRES   REMARKS
K.C. INTL      FLURRIES  31  28  89 E7        30.22F WCI  24
6HR MIN TEMP:  28; 6HR MAX TEMP:  31; 6HR PCP:  0.03;

K.C. DOWNTOWN  LGT SNOW  32  28  85 NE8       30.23F FOG     WCI  25
6HR MIN TEMP:  29; 6HR MAX TEMP:  32; 6HR PCP:  0.01;

LEES SUMMIT    LGT SNOW  32  29  88 E8        30.22F FOG     WCI  25
6HR MIN TEMP:  29; 6HR MAX TEMP:  32; 6HR PCP:  0.02;

OLATHE - IXD   CLOUDY    32  29  88 E5        30.21F WCI  27
6HR MIN TEMP:  28; 6HR MAX TEMP:  33; 6HR PCP: TRACE;

OLATHE - OJC   CLOUDY    32  29  88 E6        30.20F FOG     WCI  26
6HR MIN TEMP:  28; 6HR MAX TEMP:  32; 6HR PCP:  0.01;

LAWRENCE       CLOUDY    32  28  85 E3        30.23F FOG

$$

MOZ001>008-011>017-020>025-030>033-038>040-044>046-053-054-181900-
...NORTHERN AND CENTRAL MISSOURI...

CITY           SKY/WX    TMP DP  RH WIND       PRES   REMARKS
ST. JOSEPH     FLURRIES  30  27  88 E6        30.25F WCI  24
6HR MIN TEMP:  28; 6HR MAX TEMP:  30; 6HR PCP:  0.04;

MOSBY          LGT SNOW  32  30  93 E5        30.24F WCI  27
WARRENSBURG    LGT SNOW  32  30  93 NE5       30.23F WCI  27
WHITEMAN AFB   CLOUDY    32  30  93 E3        30.21F FOG
6HR MIN TEMP:  30; 6HR MAX TEMP:  32; 6HR PCP:  0.03;

CLINTON        CLOUDY    34  34 100 E3        30.22F FOG
SEDALIA        LGT SNOW  33  30  88 E7        30.22F FOG     WCI  27
6HR MIN TEMP:  31; 6HR MAX TEMP:  33; 6HR PCP:  0.03;

WARSAW         NOT AVBL
MARSHALL       LGT SNOW  34  30  86 E6        30.26F WCI  29
CHILLICOTHE      N/A     30  26  85 E5        30.27F WCI  25
6HR MIN TEMP:  27; 6HR MAX TEMP:  30; 6HR PCP:  0.07;

MOBERLY        LGT SNOW  32  25  74 E6        30.26  WCI  26
KIRKSVILLE     CLOUDY    28  25  88 SE6       30.25F WCI  22
6HR MIN TEMP:  25; 6HR MAX TEMP:  28; 6HR PCP:  0.06;


$$

MOZ041-047>049-056>058-063>065-088>090-097-181900-
...EASTERN AND SOUTHERN MISSOURI...

CITY           SKY/WX    TMP DP  RH WIND       PRES   REMARKS
ST. LOUIS INTL FLURRIES  33  26  75 E3        30.27F
6HR MIN TEMP:  30; 6HR MAX TEMP:  33; 6HR PCP:  0.01;

SPIRIT OF STL  LGT SNOW  31  28  89 NE6       30.26F FOG     WCI  25
COLUMBIA       LGT SNOW  32  29  88 E8        30.22F FOG     WCI  25
JEFFERSON CITY LGT SNOW  33  30  88 E6        30.25F FOG     WCI  28
MEXICO         LGT SNOW  32  30  93 E3        30.26F
HANNIBAL       LGT SNOW  32  25  74 NE5       30.26F WCI  27
ROLLA          LGT SNOW  32  30  92 E6        30.19F FOG     WCI  26
OSAGE BEACH    CLOUDY    34  30  86 E6        30.20F WCI  29
SPRINGFIELD    CLOUDY    36  34  92 S8        30.17F WCI  30
BRANSON        CLOUDY    37  36  93 SE6       30.18F WCI  33
NEVADA         CLOUDY    34  32  93 CALM      30.20F
JOPLIN         CLOUDY    39  37  92 SW5       30.18F
WEST PLAINS    CLOUDY    35  32  88 SE6       30.20F WCI  30

$$

IAZ060-094-KSZ022-034>040-054-083-096-NEZ052-066-093-181900-
...KANSAS...SOUTHEAST NEBRASKA AND IOWA...

CITY           SKY/WX    TMP DP  RH WIND       PRES   REMARKS
TOPEKA         CLOUDY    32  29  88 NE3       30.23F FOG
6HR MIN TEMP:  29; 6HR MAX TEMP:  32; 6HR PCP:  0.01;

MANHATTAN      CLOUDY    33  28  81 CALM      30.22F
EMPORIA        CLOUDY    31  29  92 CALM      30.20F FOG
CHANUTE        CLOUDY    34  33  96 N3        30.19F FOG
WICHITA        CLOUDY    33  30  88 N5        30.19F FOG     WCI  29
OMAHA          LGT SNOW  29  25  85 S7        30.25F WCI  22
LINCOLN        CLOUDY    30  26  85 S3        30.24F FOG
FALLS CITY     CLOUDY    30  26  85 E5        30.24F WCI  25
LAMONI         CLOUDY    27  24  89 CALM      30.24F
DES MOINES     FLURRIES  29  18  63 S3        30.27F

$$





U.S. Dept. of Commerce
NOAA National Weather Service
1325 East West Highway
Silver Spring, MD 20910
E-mail: w-nws.webmaster@noaa.gov
Page last modified: May 16, 2007
NATIONAL WEATHER SERVICE: for Safety, for Work, for Fun - FOR LIFE